Weather History for La Junta, CO

Change the Weather History Date:

Thursday, February 7, 2013

  Actual Average Record
Temperature  
Mean Temperature 41 °F 33 °F  
Max Temperature 52 °F 47 °F 74 °F (1963)
Min Temperature 30 °F 19 °F -14 °F (1989)
Degree Days  
Heating Degree Days 24 32  
Month to date heating degree days 174 229  
Since 1 July heating degree days 3119 3486  
Cooling Degree Days 0 0  
Month to date cooling degree days 0 0  
Year to date cooling degree days 0 0  
Moisture  
Dew Point 20 °F    
Average Humidity 47    
Maximum Humidity 69    
Minimum Humidity 24    
Precipitation  
Precipitation 0.00 in 0.01 in 0.06 in (1980)
Month to date precipitation 0.00 0.08  
Year to date precipitation 0.02 0.37  
Sea Level Pressure  
Sea Level Pressure 30.10 in    
Wind  
Wind Speed 8 mph (WNW)    
Max Wind Speed 29 mph    
Max Gust Speed 37 mph    
Visibility 10 miles    
Events      
T = Trace of Precipitation, MM = Missing Value Source: NWS Daily Summary

Daily Weather History Graph

Daily Weather History Graph

Search for Another Location

Airport:

Trip Planner

Search our weather history database for the weather conditions in past years. The results will help you decide how hot, cold, wet, or windy it might be!

Date:

Astronomy

Feb. 07, 2013 Rise Set
Actual Time 6:52 AM MST 5:24 PM MST
Civil Twilight 6:25 AM MST 5:51 PM MST
Nautical Twilight 5:54 AM MST 6:22 PM MST
Astronomical Twilight 5:23 AM MST 6:53 PM MST
Moon 4:32 AM MST (2/7) 2:52 PM MST (2/7)
Length of Visible Light 11h 26m
Length of Day
10h 31m
Waning Crescent, 8% of the Moon is Illuminated
Feb 7
Waning Crescent
Feb 10
New
Feb 17
First Quarter
Feb 25
Full
Mar 4
Last Quarter

Hourly Weather History & Observations

Time (MST) Temp. Windchill Dew Point Humidity Pressure Visibility Wind Dir Wind Speed Gust Speed Precip Events Conditions
12:53 AM 42.1 °F 32.8 °F 28.9 °F 60% 29.94 in 10.0 mi North 21.9 mph - N/A   Overcast
1:53 AM 41.0 °F 30.5 °F 28.0 °F 60% 29.96 in 10.0 mi North 26.5 mph 32.2 mph N/A   Overcast
2:53 AM 41.0 °F 33.9 °F 28.9 °F 62% 29.95 in 10.0 mi NNE 12.7 mph - N/A   Overcast
3:53 AM 41.0 °F 33.9 °F 27.0 °F 57% 30.01 in 10.0 mi NNW 12.7 mph - N/A   Overcast
4:53 AM 37.9 °F 30.0 °F 26.1 °F 62% 30.06 in 10.0 mi North 12.7 mph - N/A   Overcast
5:53 AM 36.0 °F 28.5 °F 24.1 °F 62% 30.08 in 10.0 mi NW 10.4 mph - N/A   Overcast
6:53 AM 30.9 °F 22.8 °F 21.9 °F 69% 30.13 in 10.0 mi NW 9.2 mph - N/A   Partly Cloudy
7:53 AM 33.1 °F 24.9 °F 23.0 °F 66% 30.16 in 10.0 mi NNW 10.4 mph - N/A   Clear
8:53 AM 37.9 °F 32.7 °F 24.1 °F 57% 30.17 in 10.0 mi NW 6.9 mph - N/A   Clear
9:53 AM 42.1 °F 40.2 °F 24.1 °F 49% 30.17 in 10.0 mi Variable 3.5 mph - N/A   Clear
10:53 AM 46.0 °F 43.9 °F 23.0 °F 40% 30.17 in 10.0 mi Variable 4.6 mph - N/A   Clear
11:53 AM 48.0 °F - 21.9 °F 36% 30.14 in 10.0 mi WNW 6.9 mph - N/A   Clear
12:53 PM 48.0 °F - 19.9 °F 33% 30.12 in 10.0 mi Variable 3.5 mph - N/A   Clear
1:53 PM 50.0 °F - 17.1 °F 27% 30.09 in 10.0 mi West 8.1 mph - N/A   Clear
2:53 PM 50.0 °F - 15.1 °F 25% 30.08 in 10.0 mi Calm Calm - N/A   Clear
3:53 PM 50.0 °F - 15.1 °F 25% 30.08 in 10.0 mi SSW 4.6 mph - N/A   Clear
4:53 PM 48.9 °F - 16.0 °F 27% 30.09 in 10.0 mi SSE 4.6 mph - N/A   Clear
5:53 PM 44.1 °F 40.8 °F 14.0 °F 30% 30.12 in 10.0 mi SE 5.8 mph - N/A   Clear
6:53 PM 39.9 °F 35.8 °F 14.0 °F 35% 30.15 in 10.0 mi SSE 5.8 mph - N/A   Clear
7:53 PM 37.9 °F 34.4 °F 12.9 °F 36% 30.15 in 10.0 mi South 4.6 mph - N/A   Clear
8:53 PM 37.0 °F 32.4 °F 12.9 °F 37% 30.14 in 10.0 mi South 5.8 mph - N/A   Clear
10:53 PM 36.0 °F 29.6 °F 12.9 °F 39% 30.12 in 10.0 mi South 8.1 mph - N/A   Clear
11:53 PM 33.1 °F 26.9 °F 12.0 °F 42% 30.11 in 10.0 mi SE 6.9 mph - N/A   Clear